Regional Weather Roundup
Issued by NWS Sioux Falls, SD

Home | Current Version | Previous Version | Graphics & Text | Print | Product List | Glossary On
Versions: 1 2 3 4 5 6 7 8 9 10 11 12 13 14 15 16 17 18 19 20 21 22 23 24 25 26 27 28 29 30 31 32 33 34 35 36 37 38 39 40 41 42 43 44 45 46 47 48 49 50
000
ASUS43 KFSD 202202
RWRFSD

WEATHER ROUNDUP FOR SE SOUTH DAKOTA/SW MINNESOTA/NW IOWA
NATIONAL WEATHER SERVICE SIOUX FALLS SD
400 PM CST SAT JAN 20 2018

NOTE: "FAIR" INDICATES FEW OR NO CLOUDS BELOW 12,000 FEET WITH NO
SIGNIFICANT WEATHER AND OR OBSTRUCTIONS TO VISIBILITY.


SDZ038>040-050-052>070-202300-
SOUTHEAST SOUTH DAKOTA

CITY           SKY/WX    TMP DP  RH WIND       PRES   REMARKS
BROOKINGS      CLOUDY    42  31  64 CALM      29.88R
CHAMBERLAIN    CLOUDY    42  36  79 NW6       29.90R
HURON          CLOUDY    44  34  67 N7        29.89S
MADISON        FAIR      41  34  75 N3        29.88R
MITCHELL       CLOUDY    43  34  70 N3        29.90R
SIOUX FALLS    PTSUNNY   43  34  70 N3        29.89R
WINNER         FAIR      42  35  76 N5        29.90R
YANKTON        CLOUDY    43  33  68 NW9       29.88R
$$

MNZ071-072-080-081-089-090-097-098-202300-
SOUTHWEST MINNESOTA

CITY           SKY/WX    TMP DP  RH WIND       PRES   REMARKS
FAIRMONT       MOSUNNY   42  35  76 N8        29.88S
JACKSON        CLOUDY    43  34  70 VRB3      29.88R
LUVERNE        CLOUDY    37  32  81 CALM      29.88R
MARSHALL       MOSUNNY   46  29  51 N8        29.89R
MONTEVIDEO     CLOUDY    45  30  57 N3        29.89R
PIPESTONE      CLOUDY    39  34  81 CALM      29.87S
REDWOOD FALLS  CLOUDY    45  30  55 NW6       29.88R
TRACY          MOSUNNY   46  32  56 N3        29.88R
WINDOM         CLOUDY    43  25  49 CALM      29.89R
WORTHINGTON    MOSUNNY   43  34  70 N8        29.88R
$$

IAZ001>003-012>014-020>022-031-032-NEZ013-014-SDZ071-202300-
NORTHWEST IOWA

CITY           SKY/WX    TMP DP  RH WIND       PRES   REMARKS
CHEROKEE       SUNNY     53  33  47 NE7       29.85R
DENISON        SUNNY     50  36  57 E8        29.85R
ESTHERVILLE    CLOUDY    44  36  73 N6        29.86R
LE MARS        SUNNY     50  32  50 NE10      29.85R
ORANGE CITY    SUNNY     48  37  66 N8        29.85S
SHELDON        MOSUNNY   46  37  71 N8        29.85R
SIOUX CITY     SUNNY     54  31  41 NE8       29.83S
SPENCER        MOSUNNY   50  32  50 NE7       29.86R
STORM LAKE     SUNNY     50  34  53 NE8       29.84R
$$

ABBREVIATIONS USED IN REMARKS
   TC - TEMPERATURE IN CELSIUS
  WCI - WIND CHILL INDEX
   HX - HEAT INDEX
  VSB - VISIBILITY





USA.gov is the U.S. government's official web portal to all federal, state and local government web resources and services.